Regional Weather Roundup
Issued by NWS

Home | Current Version | Previous Version | Graphics & Text | Print | Product List | Glossary On
Versions: 1 2 3 4 5 6 7 8 9 10 11 12 13 14 15 16 17 18 19 20 21 22 23 24 25 26 27 28 29 30 31 32 33 34 35 36 37 38 39 40 41 42 43 44 45 46 47 48 49 50
000
ASUS45 KBOU 060410
RWRCO

WEATHER ROUNDUP FOR COLORADO
NATIONAL WEATHER SERVICE DENVER/BOULDER CO
1000 PM MDT SUN JUL 05 2015

NOTE: "FAIR" INDICATES FEW OR NO CLOUDS BELOW 12000 FEET WITH NO
SIGNIFICANT WEATHER AND/OR OBSTRUCTIONS TO VISIBILITY.

COZ001>005-013-030-031-060500-
...NORTHWEST COLORADO...

CITY           SKY/WX    TMP DP  RH WIND       PRES   REMARKS
CRAIG          PTCLDY    58  56  93 E5        30.19R
HAYDEN         PTCLDY    57  54  88 NE6       30.22R
MEEKER         PTCLDY    58  54  86 NE8       30.19R
MOUNT WERNER   NOT AVBL
STEAMBOAT SPGS CLOUDY    56  55  94 CALM      30.24R
WALDEN         CLOUDY    54  52  94 W3        30.28R
$$

COZ006>008-011-060500-
...WEST CENTRAL VALLEYS...

CITY           SKY/WX    TMP DP  RH WIND       PRES   REMARKS
GRAND JUNCTION PTCLDY    65  59  81 E12       30.09R
MONTROSE       MOCLDY    65  57  75 CALM      30.17R
EAGLE          CLOUDY    63  61  94 CALM      30.23R
RIFLE          PTCLDY    64  58  80 SE5       30.15R
DELTA          MOCLDY    64  61  87 N3        30.15R
NUCLA          MOCLDY    64  57  77 SE5       30.19R
$$

COZ017>023-064>068-060500-
...SOUTHWEST COLORADO...

CITY           SKY/WX    TMP DP  RH WIND       PRES   REMARKS
DURANGO        MOCLDY    67  48  50 NW6       30.17R
CORTEZ         CLEAR     67  52  58 N3        30.15R
PAGOSA SPRINGS MOCLDY    62  51  67 CALM      30.26R
TELLURIDE      PTCLDY    53  51  94 E3        30.40R
WOLF CREEK PAS NOT AVBL
$$

COZ009-010-012-014-032>034-037-058>063-060500-
...CENTRAL COLORADO...

CITY           SKY/WX    TMP DP  RH WIND       PRES   REMARKS
ASPEN          LGT RAIN  57  54  89 S7        30.30R
BUENA VISTA    CLOUDY    66  47  50 W8G21     30.25R
COPPER MTN     LGT RAIN  46  41  81 W22G41    30.57R VSB 1
BERTHOUD PASS  LGT RAIN  41  32  70 NW23G36   30.58R VSB<1/4
COTTONWOOD PAS NOT AVBL
GUNNISON       CLOUDY    63  45  51 N6G21     30.32R
KREMMLING      LGT RAIN  59  52  77 CALM      30.27R
LEADVILLE      CLOUDY    53  51  93 N6        30.41R
MONARCH PASS   SNOW      46  45  93 W20       30.66R VSB<1/4
SALIDA         MOCLDY    66  51  58 SW10      30.29R
SUNLIGHT       MOCLDY    52  50  93 N3        30.51S
WILKERSON PASS CLOUDY    50  45  81 NW8G17    30.52R
$$

COZ069>075-060500-
...SAN LUIS VALLEY/SANGRE DE CRISTO MOUNTAINS...

CITY           SKY/WX    TMP DP  RH WIND       PRES   REMARKS
ALAMOSA        LGT RAIN  59  53  80 N5        30.26R
LA VETA PASS   CLOUDY    54  46  76 MISG      30.41R
SAGUACHE       CLOUDY    59  54  82 NW15      30.28R
$$

COZ035-036-038>040-060500-
...NORTHERN COLORADO FRONT RANGE...

CITY           SKY/WX    TMP DP  RH WIND       PRES   REMARKS
DENVER INTL AP MOCLDY    67  59  75 N8        30.07R
DMNS CITY PARK   N/A     69  57  66 NE7G20    30.08R
AURORA         MOCLDY    65  60  83 N7        30.10R
FRONT RANGE AP NOT AVBL
ERIE MUNI ARPT LGT RAIN  67  60  77 N9        30.07R
BOULDER MUN AP CLOUDY    64  63  94 CALM      30.08R
CENTENNIAL     MOCLDY    66  61  84 NE3       30.10R
BROOMFIELD     MOCLDY    68  59  73 N9        30.10R
FORT COLLINS   CLOUDY    64  59  82 N13       30.07R
LONGMONT       LGT RAIN  67  62  84 CALM      30.09R
$$

COZ041-046-047-076>085-087-088-060500-
...PIKES PEAK/PALMER DIVIDE AND SOUTHERN FOOTHILLS...

CITY           SKY/WX    TMP DP  RH WIND       PRES   REMARKS
COLO. SPRINGS  MOCLDY    68  55  63 NE15      30.09R
A. F. ACADEMY  MOCLDY    64  56  76 NW6       30.11R
ELLICOTT         N/A    N/A N/A N/A N10       30.08R
FALCON         CLOUDY    64  54  69 N12       30.15R
FORT CARSON    CLOUDY    68  57  68 N9        30.04R
LIMON          CLOUDY    68  56  65 N15       30.03R
MONUMENT HILL  MOCLDY    59  57  94 MISG      30.17R
TRINIDAD       MOCLDY    76  56  49 W8        30.02R
$$

COZ042>045-048>051-090-091-060500-
...NORTHEAST COLORADO...

CITY           SKY/WX    TMP DP  RH WIND       PRES   REMARKS
GREELEY ARPT   CLOUDY    68  61  77 N13       30.05R
AKRON          MOCLDY    67  61  81 N21G28    30.00R
BURLINGTON     CLOUDY    73  61  65 N22G31    29.95R
WRAY           CLOUDY    73  59  61 NW16G28   29.92R
STERLING       MOCLDY    68  63  83 N13         N/A
HOLYOKE        CLOUDY    73  64  73 N24G35    29.91R
FORT MORGAN    CLOUDY    69  56  63 N18G24    30.02R
$$

COZ086-089-092>099-060500-
...SOUTHEAST COLORADO...

CITY           SKY/WX    TMP DP  RH WIND       PRES   REMARKS
PUEBLO         MOCLDY    76  58  53 N12       29.95R
LA JUNTA       MOCLDY    80  54  40 N17       29.92R
LAMAR          PTCLDY    86  59  39 S22       29.81R
SPRINGFIELD      N/A     77  59  53 S15       29.94R
$$



USA.gov is the U.S. government's official web portal to all federal, state and local government web resources and services.